Regional Weather Roundup
Issued by NWS

Home | Current Version | Previous Version | Graphics & Text | Print | Product List | Glossary On
Versions: 1 2 3 4 5 6 7 8 9 10 11 12 13 14 15 16 17 18 19 20 21 22 23 24 25 26 27 28 29 30 31 32 33 34 35 36 37 38 39 40 41 42 43 44 45 46 47 48 49 50
189
ASUS43 KMKX 180711
RWRWI

WISCONSIN REGIONAL WEATHER ROUNDUP
NATIONAL WEATHER SERVICE MILWAUKEE/SULLIVAN WI
100 AM CST SAT NOV 18 2017

NOTE: "FAIR" INDICATES FEW OR NO CLOUDS BELOW 12,000 FEET WITH NO
SIGNIFICANT WEATHER AND/OR OBSTRUCTIONS TO VISIBILITY.

WIZ001-002-006>008-014>016-023>028-180800-
NORTHWEST WISCONSIN

CITY           SKY/WX    TMP DP  RH WIND       PRES   REMARKS
SUPERIOR ARPT  CLOUDY    31  31  99 CALM      29.69S FOG
ASHLAND        CLOUDY    34  32  92 W5        29.68R FOG     WCI  30
HAYWARD        CLOUDY    33  31  92 N7        29.65R FOG     WCI  27
SIREN          CLOUDY    32  32 100 NW7       29.70R FOG     WCI  26
CUMBERLAND     CLOUDY    32  32 100 N12       29.65R FOG     WCI  23
RICE LAKE      CLOUDY    34  33  99 N7        29.66S FOG     WCI  28
CHETEK         CLOUDY    33  33  99 CALM      29.64F
LADYSMITH      CLOUDY    34  33  99 N6        29.64S WCI  29
EAU CLAIRE     CLOUDY    35  34  96 N5        29.63S WCI  31
MENOMONIE      CLOUDY    35  35 100 NW6       29.65F FOG     WCI  30
NEW RICHMOND   CLOUDY    34  34 100 N9        29.68R FOG     WCI  26
OSCEOLA        CLOUDY    34  34 100 N6        29.71R FOG     WCI  29
$$

WIZ003>005-009-010-017-018-180800-
NORTH CENTRAL WISCONSIN

CITY           SKY/WX    TMP DP  RH WIND       PRES   REMARKS
MANITOWISH WTR FOG       32  32 100 CALM      29.61R VSB 1/2
ARBOR VITAE    CLOUDY    34  33  96 N5        29.60R FOG     WCI  30
WOODRUFF       CLOUDY    34  33  96 N5        29.60R FOG     WCI  30
RHINELANDER    CLOUDY    32  32 100 VRB5      29.58F WCI  27
EAGLE RIVER    FOG       32  32 100 N6        29.58S VSB 1   WCI  27
LAND O LAKES   FOG       33  33 100 N3        29.60F VSB<1/4
PHILLIPS       CLOUDY    32  32 100 N5        29.62R WCI  27
TOMAHAWK       CLOUDY    32  32  99 NW5       29.60R FOG     WCI  27
MEDFORD        CLOUDY    32  32  99 N5        29.58S FOG     WCI  28
MERRILL        CLOUDY    33  33 100 N6        29.60S WCI  28
$$

WIZ029-030-035-036-043>047-180800-
CENTRAL WISCONSIN

CITY           SKY/WX    TMP DP  RH WIND       PRES   REMARKS
WAUSAU         CLOUDY    34  33  96 N9        29.57F FOG     WCI  27
MOSINEE        CLOUDY    34  34 100 N6        29.57F FOG     WCI  29
MARSHFIELD     CLOUDY    34  32  92 N9        29.58R FOG     WCI  27
STEVENS POINT  CLOUDY    33  33 100 N5        29.57F FOG     WCI  28
WAUPACA        CLOUDY    37  37  97 N7        29.55F FOG     WCI  32
WAUTOMA        LGT RAIN  37  35  92 NW5       29.58F WCI  33
WISC RAPIDS    CLOUDY    36  34  92 N10       29.58F WCI  28
CAMP DOUGLAS   CLOUDY    37  36  93 NW6       29.60S WCI  33
$$

WIZ011>013-019>022-031-037>040-048>050-180800-
NORTHEAST WISCONSIN

CITY           SKY/WX    TMP DP  RH WIND       PRES   REMARKS
ANTIGO         CLOUDY    32  32 100 N7        29.56F WCI  26
SHAWANO        CLOUDY    37  35  93 CALM      29.58F FOG
OCONTO         CLOUDY    36  34  94 NW3       29.58S
STURGEON BAY   CLOUDY    37  35  92 NW10      29.57F WCI  30
GREEN BAY      CLOUDY    37  37 100 NW7       29.58S WCI  32
MANITOWOC      CLOUDY    37  36  93 NW8       29.56F WCI  31
APPLETON       CLOUDY    36  36 100 N10       29.54F FOG     WCI  28
CLINTONVILLE   CLOUDY    36  34  93 NW5       29.59F FOG     WCI  32
OSHKOSH        MIX PCPN  37  36  96 NW7       29.56F FOG     WCI  32
$$

WIZ032>034-041-042-053>061-180800-
SOUTHWEST WISCONSIN

CITY           SKY/WX    TMP DP  RH WIND       PRES   REMARKS
LA CROSSE      CLOUDY    39  37  92 NW7       29.62S WCI  34
SPARTA         CLOUDY    35  35  99 CALM      29.62R
VIROQUA        CLOUDY    36  36 100 N8        29.57F WCI  29
BOSCOBEL       CLOUDY    40  38  93 CALM      29.59F FOG
PRAIRIE DU CHI CLOUDY    38  37  95 NW5       29.58F FOG     WCI  35
PLATTEVILLE    CLOUDY    39  39 100 N6        29.56S WCI  35
$$

WIZ056-057-062-063-064-067-068-180800-
SOUTH CENTRAL WISCONSIN

CITY           SKY/WX    TMP DP  RH WIND       PRES   REMARKS
REEDSBURG      CLOUDY    37  37 100 NW6       29.58S WCI  32
BARABOO/DELLS  CLOUDY    36  36  99 N3        29.57S FOG
LONE ROCK      CLOUDY    39  38  96 NW5       29.58F FOG
MINERAL POINT  FOG       39  39 100 N6        29.55F VSB 1/2 WCI  35
MADISON        CLOUDY    38  37  97 N5        29.56F FOG     WCI  34
MIDDLETON      CLOUDY    39  39 100 N5        29.56F
WATERTOWN      CLOUDY    38  38 100 NW3       29.56F FOG
MONROE         FOG       37  37 100 N5        29.54F VSB 1/4 WCI  34
JANESVILLE     CLOUDY    41  41 100 CALM      29.55F FOG
$$

WIZ051-052-058>065-066-070>072-180800-
SOUTHEAST WISCONSIN

CITY           SKY/WX    TMP DP  RH WIND       PRES   REMARKS
MILWAUKEE      CLOUDY    43  42  97 CALM      29.55F
WAUKESHA       CLOUDY    37  37 100 NW6       29.56F FOG     WCI  33
MILWAUKEE/TIMM CLOUDY    39  36  87 CALM      29.56F FOG
RACINE         CLOUDY    43  42  97 CALM      29.58F FOG
BURLINGTON     CLOUDY    43  43 100 CALM      29.55F FOG
KENOSHA        CLOUDY    44  42  93 CALM      29.55F FOG
FOND DU LAC    CLOUDY    38  36  92 NW6       29.57R WCI  33
SHEBOYGAN      CLOUDY    39  39 100 N3        29.54F
WEST BEND      CLOUDY    37  37 100 W6        29.56F WCI  33
JUNEAU         CLOUDY    37  37  99 CALM      29.57S FOG
$$

LSZ147-162-180800-
LAKE SUPERIOR

STATION/POSITION TIME  TEMP    WIND        PRES    WAVE
                       AIR SEA DIR/SP/G            HT/PER
                 (UTC) (F)     (DEG/KT/KT) (MB)    (FT/S)
DEVILS ISLAND    0700   38     350/ 11/ 14 1005.5R
SAXON HARBOR     0630   38     360/ 10/ 12 1004.1R
$$

LMZ867-665-643>646-180800-
LAKE MICHIGAN

STATION/POSITION TIME  TEMP    WIND        PRES    WAVE
                       AIR SEA DIR/SP/G            HT/PER
                 (UTC) (F)     (DEG/KT/KT) (MB)    (FT/S)
N MID LAKE BUOY  0650   40 48  330/ 14/ 17 1001.1F   7/ 8
NORTHPORT PIER   0700   40     330/ 17/ 21 1001.0
SHEBOYGAN LAKESH 0700   40     340/  6/  6 1000.7F
PORT WASHINGTON  0630   41     320/  2/  5 1002.4F
MILWAUKEE LAKESH 0650   42     320/  3/  3   N/A
S MID LAKE BUOY  0650   46 49  250/  8/ 10 1001.4F   5/ 6
KENOSHA   LAKESH 0700   44     330/  3/  4 1001.4
$$

TC  - TEMPERATURE IN CELSIUS
VSB - VISIBILITY IN STATUTE MILES
WCI - WIND CHILL INDEX
HX  - HEAT INDEX





USA.gov is the U.S. government's official web portal to all federal, state and local government web resources and services.